Fort Lewis, WA
on Friday, November 9, 2012

Friday
Previous Day Next Day
Daily Summary
 ActualAverage (KOLM)Record (KOLM)
Temperature
Mean Temperature °F / °C 45°F / 7°C  
Max Temperature 47°F / 8°C 52°F / 11°C 62°F / 16°C (1956)
Min Temperature 26°F / -3°C 38°F / 3°C 23°F / -5°C (1978)
Degree Days
Heating Degree Days 28 20  
Month to date heating degree days 174  
Since 1 July heating degree days 968  
Cooling Degree Days 0 0  
Month to date cooling degree days 0  
Year to date cooling degree days 106  
Moisture
Dew Point 29°F / -2°C   
Average Humidity 84    
Maximum Humidity 100    
Minimum Humidity 55    
Precipitation
Precipitation 0.00 in / 0.00 cm 0.27 in / 6.86 cm 1.52 in / 3.86 cm (1961)
Month to date precipitation 2.29  
Year to date precipitation 36.20  
Wind
Wind Speed 3 mph / 5 km/h   
Max Wind Speed 8 mph / 13 km/h   
Max Gust Speed mph / km/h   
Visibility 10 miles / 16 kilometers   
Events     

Key: T is trace of precipitation, MM is missing value
Source: NWS Daily Summary
Time(PST)TemperatureDew PointHumidity Pressure Visibility Wind DirectionWind SpeedGust SpeedPrecipitationEvents Conditions
12:58 AM 30.7°F / -0.7°C 29.8°F / -1.2°C 96% 29.87 in / 1011.4 hPa 10.0 miles / 16.1 kilometers SE 2.3 mph / 3.7 km/h - N/A   Clear
1:58 AM 28.9°F / -1.7°C 27.9°F / -2.3°C 96% 29.87 in / 1011.4 hPa 10.0 miles / 16.1 kilometers SE 3.5 mph / 5.6 km/h - N/A   Clear
2:58 AM 30.2°F / -1.0°C 29.3°F / -1.5°C 96% 29.87 in / 1011.4 hPa 10.0 miles / 16.1 kilometers ESE 2.3 mph / 3.7 km/h - N/A   Clear
3:58 AM 28.0°F / -2.2°C 26.8°F / -2.9°C 95% 29.88 in / 1011.7 hPa 10.0 miles / 16.1 kilometers SE 2.3 mph / 3.7 km/h - N/A   Clear
4:58 AM 27.9°F / -2.3°C 26.6°F / -3.0°C 95% 29.88 in / 1011.8 hPa 10.0 miles / 16.1 kilometers ESE 2.3 mph / 3.7 km/h - N/A   Clear
5:58 AM 27.7°F / -2.4°C 26.4°F / -3.1°C 95% 29.89 in / 1012.1 hPa 10.0 miles / 16.1 kilometers SE 1.2 mph / 1.9 km/h - N/A   Clear
6:58 AM 27.9°F / -2.3°C 26.8°F / -2.9°C 96% 29.90 in / 1012.5 hPa 10.0 miles / 16.1 kilometers ESE 2.3 mph / 3.7 km/h - N/A   Clear
7:36 AM 26.6°F / -3.0°C 26.6°F / -3.0°C 100% 29.89 in / 1012.1 hPa 10.0 miles / 16.1 kilometers Calm Calm - N/A   Partly Cloudy
7:58 AM 28.6°F / -1.9°C 27.5°F / -2.5°C 96% 29.91 in / 1012.9 hPa 10.0 miles / 16.1 kilometers East 1.2 mph / 1.9 km/h - N/A   Partly Cloudy
8:58 AM 32.2°F / 0.1°C 30.4°F / -0.9°C 93% 29.91 in / 1012.8 hPa 10.0 miles / 16.1 kilometers Calm Calm - N/A   Clear
9:58 AM 38.7°F / 3.7°C 34.0°F / 1.1°C 83% 29.91 in / 1012.8 hPa 10.0 miles / 16.1 kilometers WSW 2.3 mph / 3.7 km/h - N/A   Clear
10:58 AM 44.8°F / 7.1°C 34.7°F / 1.5°C 68% 29.92 in / 1013.1 hPa 10.0 miles / 16.1 kilometers Variable 3.5 mph / 5.6 km/h - N/A   Clear
11:58 AM 46.6°F / 8.1°C 33.3°F / 0.7°C 60% 29.91 in / 1012.8 hPa 10.0 miles / 16.1 kilometers NNE 4.6 mph / 7.4 km/h - N/A   Scattered Clouds
12:58 PM 45.5°F / 7.5°C 32.0°F / -0.0°C 59% 29.90 in / 1012.4 hPa 10.0 miles / 16.1 kilometers NE 5.8 mph / 9.3 km/h - N/A   Overcast
1:58 PM 45.5°F / 7.5°C 31.5°F / -0.3°C 58% 29.90 in / 1012.4 hPa 10.0 miles / 16.1 kilometers NW 2.3 mph / 3.7 km/h - N/A   Mostly Cloudy
2:58 PM 47.7°F / 8.7°C 32.2°F / 0.1°C 55% 29.89 in / 1012.1 hPa 10.0 miles / 16.1 kilometers North 8.1 mph / 13.0 km/h - N/A   Mostly Cloudy
3:58 PM 44.1°F / 6.7°C 30.2°F / -1.0°C 58% 29.89 in / 1012.1 hPa 10.0 miles / 16.1 kilometers Variable 4.6 mph / 7.4 km/h - N/A   Clear
4:58 PM 41.9°F / 5.5°C 29.5°F / -1.4°C 61% 29.90 in / 1012.5 hPa 10.0 miles / 16.1 kilometers North 5.8 mph / 9.3 km/h - N/A   Clear
5:58 PM 37.0°F / 2.8°C 31.3°F / -0.4°C 80% 29.92 in / 1013.2 hPa 10.0 miles / 16.1 kilometers ENE 1.2 mph / 1.9 km/h - N/A   Clear
6:58 PM 35.2°F / 1.8°C 30.9°F / -0.6°C 84% 29.92 in / 1013.2 hPa 10.0 miles / 16.1 kilometers Calm Calm - N/A   Clear
7:58 PM 31.8°F / -0.1°C 29.8°F / -1.2°C 92% 29.94 in / 1013.6 hPa 10.0 miles / 16.1 kilometers SE 4.6 mph / 7.4 km/h - N/A   Clear
8:58 PM 29.7°F / -1.3°C 27.9°F / -2.3°C 93% 29.94 in / 1013.9 hPa 10.0 miles / 16.1 kilometers SE 3.5 mph / 5.6 km/h - N/A   Clear
9:58 PM 28.8°F / -1.8°C 27.0°F / -2.8°C 93% 29.95 in / 1014.2 hPa 10.0 miles / 16.1 kilometers SE 5.8 mph / 9.3 km/h - N/A   Clear
10:58 PM 27.9°F / -2.3°C 26.4°F / -3.1°C 94% 29.96 in / 1014.5 hPa 10.0 miles / 16.1 kilometers ESE 2.3 mph / 3.7 km/h - N/A   Clear
11:58 PM 26.8°F / -2.9°C 25.2°F / -3.8°C 94% 29.97 in / 1014.8 hPa 10.0 miles / 16.1 kilometers SE 4.6 mph / 7.4 km/h - N/A   Clear
Moon Phase
Nov. 09 Nov. 13 Nov. 20 Nov. 28 Dec. 06
Sunrise:07:05 AM (PST) Moon Rise:01:53 AM (PST)11/9
Sunset:04:41 PM (PST) Moon Set:02:13 PM (PST)11/9

Copyright © 2014 The Weather Underground, Inc.